When you browse on this site, cookies collect data to enhance your experience and personalize the content and advertising you see.
Visit our Privacy Policy to learn more. By continuing to use the site, you agree to this use of cookies and data.
  • In Belgien
  • Länderverzeichnis
  • Für 7 Tage
  • Wassertemperatur
  • Wetterkarte
  • Widgets
  • user-avatar
    Anmelden

    Stündliche Wetter Brisbane

    Heute, 12 Dezember, Donnerstag

    Zeit Temperatur Niederschläge Wind Luftdruck Luftfeuchtigkeit
    00:00 +25°C° 1.5 mm 3 m/S 758 mmHg 81%
    01:00 +25°C° 1.5 mm 4 m/S 757 mmHg 77%
    02:00 +25°C° 0 mm 3 m/S 756 mmHg 79%
    03:00 +24°C° 0 mm 3 m/S 756 mmHg 80%
    04:00 +22°C° 0 mm 3 m/S 755 mmHg 74%
    05:00 +25°C° 0 mm 2 m/S 756 mmHg 69%
    06:00 +26°C° 0 mm 1 m/S 757 mmHg 65%
    07:00 +27°C° 0 mm 1 m/S 757 mmHg 61%
    08:00 +30°C° 0 mm 1 m/S 757 mmHg 53%
    09:00 +32°C° 0 mm 2 m/S 757 mmHg 46%
    10:00 +35°C° 0 mm 2 m/S 756 mmHg 40%
    11:00 +36°C° 0 mm 2 m/S 756 mmHg 40%
    12:00 +36°C° 0 mm 3 m/S 755 mmHg 40%
    13:00 +37°C° 0 mm 4 m/S 755 mmHg 40%
    14:00 +35°C° 0.1 mm 5 m/S 754 mmHg 46%
    15:00 +33°C° 0.1 mm 6 m/S 754 mmHg 52%
    16:00 +32°C° 0.1 mm 7 m/S 753 mmHg 58%
    17:00 +29°C° 0.2 mm 6 m/S 754 mmHg 63%
    18:00 +28°C° 0.2 mm 5 m/S 755 mmHg 67%
    19:00 +26°C° 0.2 mm 4 m/S 756 mmHg 71%
    20:00 +25°C° 0 mm 3 m/S 756 mmHg 74%
    21:00 +25°C° 0 mm 3 m/S 757 mmHg 77%
    22:00 +24°C° 0 mm 2 m/S 757 mmHg 80%
    23:00 +24°C° 0 mm 2 m/S 757 mmHg 79%

    Morgen, 13 Dezember, Freitag

    Zeit Temperatur Niederschläge Wind Luftdruck Luftfeuchtigkeit
    00:00 +24°C° 0 mm 2 m/S 757 mmHg 77%
    01:00 +24°C° 0 mm 1 m/S 756 mmHg 76%
    02:00 +23°C° 0 mm 1 m/S 756 mmHg 76%
    03:00 +23°C° 0 mm 1 m/S 756 mmHg 76%
    04:00 +21°C° 0 mm 0 m/S 756 mmHg 76%
    05:00 +22°C° 0 mm 0 m/S 756 mmHg 72%
    06:00 +26°C° 0 mm 1 m/S 757 mmHg 68%
    07:00 +27°C° 0 mm 1 m/S 757 mmHg 64%
    08:00 +28°C° 0 mm 1 m/S 757 mmHg 61%
    09:00 +29°C° 0 mm 1 m/S 757 mmHg 58%
    10:00 +30°C° 0 mm 2 m/S 757 mmHg 55%
    11:00 +30°C° 0 mm 2 m/S 756 mmHg 57%
    12:00 +30°C° 0 mm 3 m/S 756 mmHg 58%
    13:00 +30°C° 0 mm 3 m/S 755 mmHg 59%
    14:00 +30°C° 0.1 mm 3 m/S 755 mmHg 60%
    15:00 +30°C° 0.1 mm 4 m/S 755 mmHg 62%
    16:00 +30°C° 0.1 mm 4 m/S 754 mmHg 63%
    17:00 +28°C° 0.2 mm 4 m/S 755 mmHg 69%
    18:00 +27°C° 0.2 mm 3 m/S 755 mmHg 74%
    19:00 +26°C° 0.2 mm 3 m/S 756 mmHg 80%
    20:00 +25°C° 0.2 mm 3 m/S 756 mmHg 81%
    21:00 +25°C° 0.2 mm 2 m/S 757 mmHg 83%
    22:00 +25°C° 0.2 mm 2 m/S 757 mmHg 84%
    23:00 +25°C° 0.2 mm 2 m/S 757 mmHg 85%

    übermorgen, 14 Dezember, Samstag

    Zeit Temperatur Niederschläge Wind Luftdruck Luftfeuchtigkeit
    00:00 +24°C° 0.2 mm 2 m/S 757 mmHg 85%
    01:00 +24°C° 0.2 mm 2 m/S 756 mmHg 86%
    02:00 +24°C° 0.1 mm 2 m/S 756 mmHg 86%
    03:00 +24°C° 0.1 mm 1 m/S 756 mmHg 86%
    04:00 +24°C° 0.1 mm 1 m/S 756 mmHg 86%
    05:00 +25°C° 0.3 mm 1 m/S 756 mmHg 83%
    06:00 +26°C° 0.3 mm 1 m/S 756 mmHg 79%
    07:00 +26°C° 0.3 mm 1 m/S 756 mmHg 75%
    08:00 +29°C° 0 mm 1 m/S 756 mmHg 66%
    09:00 +31°C° 0 mm 2 m/S 756 mmHg 57%
    10:00 +34°C° 0 mm 2 m/S 756 mmHg 48%
    11:00 +34°C° 0.4 mm 2 m/S 756 mmHg 49%
    12:00 +34°C° 0.4 mm 3 m/S 755 mmHg 50%
    13:00 +34°C° 0.4 mm 4 m/S 754 mmHg 51%
    14:00 +33°C° 0.2 mm 4 m/S 754 mmHg 55%
    15:00 +32°C° 0.2 mm 4 m/S 753 mmHg 59%
    16:00 +30°C° 0.2 mm 5 m/S 753 mmHg 63%
    17:00 +29°C° 0 mm 4 m/S 754 mmHg 68%
    18:00 +28°C° 0 mm 4 m/S 754 mmHg 72%
    19:00 +27°C° 0 mm 3 m/S 755 mmHg 77%
    20:00 +26°C° 0.1 mm 3 m/S 755 mmHg 79%
    21:00 +26°C° 0.1 mm 2 m/S 756 mmHg 81%
    22:00 +26°C° 0.1 mm 2 m/S 757 mmHg 82%
    23:00 +26°C° 0.2 mm 2 m/S 757 mmHg 84%

    15 Dezember, Sonntag

    Zeit Temperatur Niederschläge Wind Luftdruck Luftfeuchtigkeit
    00:00 +25°C° 0.2 mm 1 m/S 756 mmHg 85%
    01:00 +25°C° 0.2 mm 1 m/S 756 mmHg 86%
    02:00 +25°C° 0.3 mm 1 m/S 756 mmHg 86%
    03:00 +24°C° 0.3 mm 1 m/S 756 mmHg 87%
    04:00 +24°C° 0.3 mm 1 m/S 756 mmHg 87%
    05:00 +25°C° 0 mm 1 m/S 756 mmHg 82%
    06:00 +26°C° 0 mm 1 m/S 757 mmHg 77%
    07:00 +28°C° 0 mm 1 m/S 757 mmHg 72%
    08:00 +29°C° 0 mm 1 m/S 757 mmHg 65%
    09:00 +31°C° 0 mm 2 m/S 757 mmHg 58%
    10:00 +32°C° 0 mm 2 m/S 757 mmHg 51%
    11:00 +34°C° 0.1 mm 2 m/S 757 mmHg 49%
    12:00 +35°C° 0.1 mm 3 m/S 756 mmHg 47%
    13:00 +35°C° 0.1 mm 3 m/S 755 mmHg 45%
    14:00 +35°C° 0 mm 4 m/S 755 mmHg 47%
    15:00 +34°C° 0 mm 4 m/S 754 mmHg 49%
    16:00 +33°C° 0 mm 5 m/S 754 mmHg 51%
    17:00 +32°C° 0 mm 4 m/S 754 mmHg 59%
    18:00 +29°C° 0 mm 4 m/S 755 mmHg 66%
    19:00 +27°C° 0 mm 4 m/S 755 mmHg 74%
    20:00 +27°C° 0 mm 4 m/S 755 mmHg 76%
    21:00 +26°C° 0 mm 4 m/S 756 mmHg 79%
    22:00 +26°C° 0 mm 4 m/S 756 mmHg 81%
    23:00 +25°C° 0 mm 3 m/S 756 mmHg 83%

    16 Dezember, Montag

    Zeit Temperatur Niederschläge Wind Luftdruck Luftfeuchtigkeit
    00:00 +25°C° 0 mm 2 m/S 756 mmHg 84%
    01:00 +25°C° 0 mm 2 m/S 755 mmHg 85%
    02:00 +24°C° 0 mm 2 m/S 755 mmHg 86%
    03:00 +24°C° 0 mm 1 m/S 755 mmHg 86%
    04:00 +24°C° 0 mm 1 m/S 755 mmHg 86%
    05:00 +25°C° 0 mm 2 m/S 756 mmHg 79%
    06:00 +27°C° 0 mm 2 m/S 756 mmHg 73%
    07:00 +28°C° 0 mm 2 m/S 756 mmHg 66%
    08:00 +31°C° 0 mm 2 m/S 756 mmHg 56%
    09:00 +34°C° 0 mm 2 m/S 756 mmHg 45%
    10:00 +37°C° 0 mm 2 m/S 756 mmHg 35%
    11:00 +39°C° 0 mm 2 m/S 755 mmHg 29%
    12:00 +41°C° 0 mm 2 m/S 755 mmHg 24%
    13:00 +43°C° 0 mm 3 m/S 754 mmHg 18%
    14:00 +40°C° 0 mm 3 m/S 754 mmHg 24%
    15:00 +40°C° 0 mm 4 m/S 753 mmHg 29%
    16:00 +37°C° 0 mm 5 m/S 753 mmHg 35%
    17:00 +34°C° 0 mm 5 m/S 754 mmHg 42%
    18:00 +32°C° 0 mm 5 m/S 755 mmHg 49%
    19:00 +29°C° 0 mm 5 m/S 756 mmHg 56%
    20:00 +28°C° 0 mm 5 m/S 757 mmHg 61%
    21:00 +27°C° 0 mm 4 m/S 758 mmHg 65%
    22:00 +26°C° 0 mm 4 m/S 759 mmHg 69%
    23:00 +26°C° 0 mm 4 m/S 759 mmHg 73%

    17 Dezember, Dienstag

    Zeit Temperatur Niederschläge Wind Luftdruck Luftfeuchtigkeit
    00:00 +25°C° 0 mm 4 m/S 759 mmHg 76%
    01:00 +25°C° 0 mm 4 m/S 758 mmHg 79%
    02:00 +23°C° 0 mm 4 m/S 758 mmHg 79%
    03:00 +23°C° 0 mm 4 m/S 759 mmHg 79%
    04:00 +23°C° 0 mm 4 m/S 759 mmHg 79%
    05:00 +25°C° 0 mm 4 m/S 759 mmHg 74%
    06:00 +25°C° 0 mm 4 m/S 760 mmHg 69%
    07:00 +26°C° 0 mm 5 m/S 760 mmHg 64%
    08:00 +28°C° 0 mm 5 m/S 760 mmHg 57%
    09:00 +29°C° 0 mm 5 m/S 761 mmHg 49%
    10:00 +30°C° 0 mm 5 m/S 761 mmHg 42%
    11:00 +32°C° 0 mm 6 m/S 760 mmHg 41%
    12:00 +32°C° 0 mm 6 m/S 760 mmHg 41%
    13:00 +32°C° 0 mm 6 m/S 760 mmHg 40%
    14:00 +30°C° 0 mm 6 m/S 759 mmHg 43%
    15:00 +29°C° 0 mm 6 m/S 759 mmHg 47%
    16:00 +29°C° 0 mm 6 m/S 759 mmHg 50%
    17:00 +27°C° 0 mm 6 m/S 760 mmHg 55%
    18:00 +26°C° 0 mm 5 m/S 760 mmHg 60%
    19:00 +23°C° 0 mm 5 m/S 761 mmHg 65%
    20:00 +23°C° 0 mm 4 m/S 761 mmHg 67%
    21:00 +22°C° 0 mm 4 m/S 762 mmHg 70%
    22:00 +22°C° 0 mm 4 m/S 762 mmHg 72%
    23:00 +22°C° 0 mm 4 m/S 762 mmHg 72%
    Mehr zeigen